Location: Newark
(40.9833°N, 0.0333°W)
Time: 08:56:13
(UTC+00:00)

Transit 4A - Pass Details

Date: 31 October 2020
Orbit: 862 x 982 km, 66.8° (Epoch: 26 November)

Event Time Altitude Azimuth Distance (km) Brightness Sun altitude
Rises 22:58:02 0° 332° (NNW) 3,693 - -61.7°
Reaches altitude 10° 23:00:39 10° 335° (NNW) 2,738 - -61.9°
Maximum altitude 23:07:02 66° 58° (ENE) 1,054 - -62.3°
Drops below altitude 10° 23:13:15 10° 140° (SE) 2,670 - -62.7°
Sets 23:15:47 0° 143° (SE) 3,595 - -62.8°
